Year,Month,Day,Hour,Minute,Value (Times are PST for temperature in C)
2017,12,01,09,13,-24.90
2017,12,01,09,14,-24.80
2017,12,01,09,15,-24.60
2017,12,01,09,16,-24.60
2017,12,01,09,17,-24.30
2017,12,01,09,18,-24.20
2017,12,01,09,19,-24.10
2017,12,01,09,20,-23.90
2017,12,01,09,21,-23.80
2017,12,01,09,22,-23.60
2017,12,01,09,23,-23.50
2017,12,01,09,24,-22.60
2017,12,01,09,25,-22.40
2017,12,01,09,26,-22.00
2017,12,01,09,27,-21.70
2017,12,01,09,28,-21.40
2017,12,01,09,29,-21.30
2017,12,01,09,30,-21.10
2017,12,01,09,31,-20.70
2017,12,01,09,32,-20.40
2017,12,01,09,33,-20.20
2017,12,01,09,34,-20.10
2017,12,01,09,35,-19.90
2017,12,01,09,36,-19.60
2017,12,01,09,37,-19.30
2017,12,01,09,38,-18.90
2017,12,01,09,39,-18.40
2017,12,01,09,40,-17.90
2017,12,01,09,41,-17.40
2017,12,01,09,42,-17.00
2017,12,01,09,43,-16.60
2017,12,01,09,44,-16.40
2017,12,01,09,45,-16.20
2017,12,01,09,46,-16.10
2017,12,01,09,47,-15.80
2017,12,01,09,48,-15.80
2017,12,01,09,49,-15.60
2017,12,01,09,50,-15.60
2017,12,01,09,51,-15.50
2017,12,01,09,52,-15.30
2017,12,01,09,53,-15.30
2017,12,01,09,54,-15.10
2017,12,01,09,55,-15.30
2017,12,01,09,56,-15.30
2017,12,01,09,57,-15.30
2017,12,01,09,58,-15.10
2017,12,01,09,59,-15.10
2017,12,01,10,00,-15.10
2017,12,01,10,01,-14.80
2017,12,01,10,02,-14.80
2017,12,01,10,03,-14.80
2017,12,01,10,04,-14.60
2017,12,01,10,05,-14.60
2017,12,01,10,06,-14.60
2017,12,01,10,07,-14.60
2017,12,01,10,08,-14.40
2017,12,01,10,09,-14.30
2017,12,01,10,10,-14.30
2017,12,01,10,11,-14.30
2017,12,01,10,12,-14.30
2017,12,01,10,13,-14.20
2017,12,01,10,14,-14.10
2017,12,01,10,15,-14.00
2017,12,01,10,16,-14.00
2017,12,01,10,17,-14.00
2017,12,01,10,18,-14.00
2017,12,01,10,19,-13.90
2017,12,01,10,20,-13.80
2017,12,01,10,21,-13.80
2017,12,01,10,22,-13.80
2017,12,01,10,23,-13.80
2017,12,01,10,24,-13.60
2017,12,01,10,25,-13.50
2017,12,01,10,26,-13.50
2017,12,01,10,27,-13.50
2017,12,01,10,28,-13.50
2017,12,01,10,29,-13.30
2017,12,01,10,30,-13.30
2017,12,01,10,31,-13.30
2017,12,01,10,32,-13.30
2017,12,01,10,33,-13.30
2017,12,01,10,34,-13.20
2017,12,01,10,35,-13.00
2017,12,01,10,36,-13.00
2017,12,01,10,37,-13.00
2017,12,01,10,38,-13.00
2017,12,01,10,39,-12.90
2017,12,01,10,40,-12.80
2017,12,01,10,41,-12.80
2017,12,01,10,42,-12.80
2017,12,01,10,43,-12.70
2017,12,01,10,44,-12.60
2017,12,01,10,45,-12.50
2017,12,01,10,46,-12.50
2017,12,01,10,47,-12.50
2017,12,01,10,48,-12.50
2017,12,01,10,49,-12.50
2017,12,01,10,50,-12.50
2017,12,01,10,51,-12.50
2017,12,01,10,52,-12.50
2017,12,01,10,53,-12.40
2017,12,01,10,54,-12.20
2017,12,01,10,55,-12.20
2017,12,01,10,56,-12.20
2017,12,01,10,57,-12.20
2017,12,01,10,58,-12.20
2017,12,01,10,59,-12.20
2017,12,01,11,00,-12.20
2017,12,01,11,01,-12.20
2017,12,01,11,02,-12.10
2017,12,01,11,03,-12.10
2017,12,01,11,04,-12.00
2017,12,01,11,05,-12.00
2017,12,01,11,06,-12.00
2017,12,01,11,07,-12.00
2017,12,01,11,08,-12.00
2017,12,01,11,09,-12.00
2017,12,01,11,10,-11.90
2017,12,01,11,11,-11.70
2017,12,01,11,12,-11.70
2017,12,01,11,13,-11.70
2017,12,01,11,14,-11.70
2017,12,01,11,15,-11.70
2017,12,01,11,16,-11.50
2017,12,01,11,17,-11.50
2017,12,01,11,18,-11.50
2017,12,01,11,19,-11.50
2017,12,01,11,20,-11.50
2017,12,01,11,21,-11.30
2017,12,01,11,22,-11.30
2017,12,01,11,23,-11.20
2017,12,01,11,24,-11.30
2017,12,01,11,25,-11.20
2017,12,01,11,26,-11.20
2017,12,01,11,27,-11.20
2017,12,01,11,28,-11.20
2017,12,01,11,29,-11.20
2017,12,01,11,30,-11.20
2017,12,01,11,31,-11.20
2017,12,01,11,32,-11.00
2017,12,01,11,33,-11.10
2017,12,01,11,34,-11.10
2017,12,01,11,35,-11.20
2017,12,01,11,36,-11.40
2017,12,01,11,37,-11.50
2017,12,01,11,38,-11.50
2017,12,01,11,39,-11.50
2017,12,01,11,40,-11.60
2017,12,01,11,41,-11.60
2017,12,01,11,42,-11.70
2017,12,01,11,43,-11.70
2017,12,01,11,44,-11.70
2017,12,01,11,45,-11.90
2017,12,01,11,46,-12.00
2017,12,01,11,47,-11.90
2017,12,01,11,48,-11.80
2017,12,01,11,49,-12.00
2017,12,01,11,50,-12.20
2017,12,01,11,51,-12.40
2017,12,01,11,52,-12.50
2017,12,01,11,53,-12.50
2017,12,01,11,54,-12.50
2017,12,01,11,55,-12.60
2017,12,01,11,56,-12.80
2017,12,01,11,57,-12.80
2017,12,01,11,58,-12.80
2017,12,01,11,59,-12.80
2017,12,01,12,00,-12.90
2017,12,01,12,01,-13.20
2017,12,01,12,02,-13.30
2017,12,01,12,03,-13.40
2017,12,01,12,04,-13.50
2017,12,01,12,05,-13.70
2017,12,01,12,06,-13.80
2017,12,01,12,07,-14.00
2017,12,01,12,08,-14.30
2017,12,01,12,09,-14.50
2017,12,01,12,10,-14.60
2017,12,01,12,11,-14.70
2017,12,01,12,12,-14.80
2017,12,01,12,13,-15.10
2017,12,01,12,14,-15.10
2017,12,01,12,15,-15.20
2017,12,01,12,16,-15.30
2017,12,01,12,17,-15.30
2017,12,01,12,18,-15.30
2017,12,01,12,19,-15.60
2017,12,01,12,20,-15.60
2017,12,01,12,21,-15.80
2017,12,01,12,22,-15.80
2017,12,01,12,23,-16.10
2017,12,01,12,24,-16.30
2017,12,01,12,25,-16.40
2017,12,01,12,26,-16.40
2017,12,01,12,27,-16.70
2017,12,01,12,28,-16.90
2017,12,01,12,29,-17.20
2017,12,01,12,30,-17.40
2017,12,01,12,31,-17.50
2017,12,01,12,32,-17.50
2017,12,01,12,33,-17.60
2017,12,01,12,34,-17.80
2017,12,01,12,35,-17.80
2017,12,01,12,36,-17.90
2017,12,01,12,37,-17.90
2017,12,01,12,38,-18.10
2017,12,01,12,39,-18.10
2017,12,01,12,40,-18.10
2017,12,01,12,41,-18.40
2017,12,01,12,42,-18.70
2017,12,01,12,43,-18.70
2017,12,01,12,44,-18.70
2017,12,01,12,45,-18.70
2017,12,01,12,46,-18.70
2017,12,01,12,47,-18.80
2017,12,01,12,48,-19.00
2017,12,01,12,49,-19.10
2017,12,01,12,50,-19.30
2017,12,01,12,51,-19.30
2017,12,01,12,52,-19.30
2017,12,01,12,53,-19.30
2017,12,01,12,54,-19.60
2017,12,01,12,55,-19.60
2017,12,01,12,56,-19.60
2017,12,01,12,57,-19.80
2017,12,01,12,58,-19.90
2017,12,01,12,59,-19.90
2017,12,01,13,00,-19.90
2017,12,01,13,01,-19.90
2017,12,01,13,02,-19.90
2017,12,01,13,03,-19.90
2017,12,01,13,04,-19.90
2017,12,01,13,05,-19.90
2017,12,01,13,06,-20.20
2017,12,01,13,07,-20.20
2017,12,01,13,08,-20.00
2017,12,01,13,09,-20.10
2017,12,01,13,10,-20.20
2017,12,01,13,11,-20.20
2017,12,01,13,12,-20.30
2017,12,01,13,13,-20.60
2017,12,01,13,14,-20.70
2017,12,01,13,15,-20.80
2017,12,01,13,16,-20.80
2017,12,01,13,17,-20.80
2017,12,01,13,18,-21.10
2017,12,01,13,19,-21.10
2017,12,01,13,20,-21.10
2017,12,01,13,21,-21.10
2017,12,01,13,22,-21.40
2017,12,01,13,23,-21.40
2017,12,01,13,24,-21.40
2017,12,01,13,25,-21.40
2017,12,01,13,26,-21.60
2017,12,01,13,27,-21.70
2017,12,01,13,28,-21.70
2017,12,01,13,29,-21.70
2017,12,01,13,30,-21.90
2017,12,01,13,31,-22.00
2017,12,01,13,32,-22.00
2017,12,01,13,33,-22.00
2017,12,01,13,34,-22.00
2017,12,01,13,35,-22.00
2017,12,01,13,36,-21.90
2017,12,01,13,37,-21.80
2017,12,01,13,38,-21.80
2017,12,01,13,39,-21.70
2017,12,01,13,40,-22.00
2017,12,01,13,41,-22.00
2017,12,01,13,42,-22.00
2017,12,01,13,43,-22.10
2017,12,01,13,44,-22.30
2017,12,01,13,45,-22.30
2017,12,01,13,46,-22.30
2017,12,01,13,47,-22.30
2017,12,01,13,48,-22.30
2017,12,01,13,49,-22.30
2017,12,01,13,50,-22.30
2017,12,01,13,51,-22.30
2017,12,01,13,52,-22.30
2017,12,01,13,53,-22.30
2017,12,01,13,54,-22.40
2017,12,01,13,55,-22.50
2017,12,01,13,56,-22.50
2017,12,01,13,57,-22.50
2017,12,01,13,58,-22.50
2017,12,01,13,59,-22.50
2017,12,01,14,00,-22.50
2017,12,01,14,01,-22.60
2017,12,01,14,02,-22.90
2017,12,01,14,03,-22.90
2017,12,01,14,04,-22.90
2017,12,01,14,05,-22.90
2017,12,01,14,06,-22.90
2017,12,01,14,07,-22.90
2017,12,01,14,08,-22.90
2017,12,01,14,09,-23.00
2017,12,01,14,10,-23.20
2017,12,01,14,11,-23.20
2017,12,01,14,12,-23.00
2017,12,01,14,13,-23.10
2017,12,01,14,14,-23.20
2017,12,01,14,15,-23.20
2017,12,01,14,16,-23.20
2017,12,01,14,17,-23.20
2017,12,01,14,18,-23.20
2017,12,01,14,19,-23.20
2017,12,01,14,20,-23.20
2017,12,01,14,21,-23.20
2017,12,01,14,22,-23.20
2017,12,01,14,23,-23.50
2017,12,01,14,24,-23.60
2017,12,01,14,25,-23.60
2017,12,01,14,26,-23.60
2017,12,01,14,27,-23.60
2017,12,01,14,28,-23.60
2017,12,01,14,29,-23.60
2017,12,01,14,30,-23.60
2017,12,01,14,31,-23.60
2017,12,01,14,32,-23.60
2017,12,01,14,33,-23.60
2017,12,01,14,34,-23.60
2017,12,01,14,35,-23.60
2017,12,01,14,36,-23.60
2017,12,01,14,37,-23.60
2017,12,01,14,38,-23.70
2017,12,01,14,39,-23.70
2017,12,01,14,40,-23.90
2017,12,01,14,41,-23.90
2017,12,01,14,42,-23.90
2017,12,01,14,43,-23.90
2017,12,01,14,44,-23.90
2017,12,01,14,45,-23.90
2017,12,01,14,46,-23.90
2017,12,01,14,47,-23.90
2017,12,01,14,48,-23.90
2017,12,01,14,49,-23.90
2017,12,01,14,50,-23.90
2017,12,01,14,51,-23.90
2017,12,01,14,52,-24.10
2017,12,01,14,53,-24.20
2017,12,01,14,54,-24.20
2017,12,01,14,55,-24.20
2017,12,01,14,56,-24.20
2017,12,01,14,57,-24.20
2017,12,01,14,58,-24.20
2017,12,01,14,59,-24.20
2017,12,01,15,00,-24.20
2017,12,01,15,01,-24.20
2017,12,01,15,02,-24.20
2017,12,01,15,03,-24.30
2017,12,01,15,04,-24.50
2017,12,01,15,05,-24.50
2017,12,01,15,06,-24.50
2017,12,01,15,07,-24.40
2017,12,01,15,08,-24.60
2017,12,01,15,09,-24.60
2017,12,01,15,10,-24.60
2017,12,01,15,11,-24.60
2017,12,01,15,12,-24.60
2017,12,01,15,13,-24.60
2017,12,01,15,14,-24.60
2017,12,01,15,15,-24.60
2017,12,01,15,16,-24.60
2017,12,01,15,17,-24.60
2017,12,01,15,18,-24.60
2017,12,01,15,19,-24.60
2017,12,01,15,20,-24.60
2017,12,01,15,21,-24.60
2017,12,01,15,22,-24.60
2017,12,01,15,23,-24.60
2017,12,01,15,24,-24.60
2017,12,01,15,25,-24.60
2017,12,01,15,26,-24.60
2017,12,01,15,27,-24.60
2017,12,01,15,28,-24.60
2017,12,01,15,29,-24.60
2017,12,01,15,30,-24.60
2017,12,01,15,31,-24.60
2017,12,01,15,32,-24.60
2017,12,01,15,33,-24.60
2017,12,01,15,34,-24.60
2017,12,01,15,35,-24.60
2017,12,01,15,36,-24.60
2017,12,01,15,37,-24.60
2017,12,01,15,38,-24.60
2017,12,01,15,39,-24.60
2017,12,01,15,40,-24.70
2017,12,01,15,41,-24.80
2017,12,01,15,42,-24.60
2017,12,01,15,43,-24.60
2017,12,01,15,44,-24.60
2017,12,01,15,45,-24.60
2017,12,01,15,46,-24.60
2017,12,01,15,47,-24.70
2017,12,01,15,48,-24.80
2017,12,01,15,49,-24.90
2017,12,01,15,50,-24.90
2017,12,01,15,51,-24.90
2017,12,01,15,52,-24.90
2017,12,01,15,53,-24.90
2017,12,01,15,54,-24.90
2017,12,01,15,55,-24.90
2017,12,01,15,56,-24.90
2017,12,01,15,57,-24.90
2017,12,01,15,58,-24.90
2017,12,01,15,59,-24.90
2017,12,01,16,00,-24.90
2017,12,01,16,01,-24.90
2017,12,01,16,02,-24.90
2017,12,01,16,03,-24.90
2017,12,01,16,04,-24.90
2017,12,01,16,05,-24.90
2017,12,01,16,06,-24.90
2017,12,01,16,07,-24.90
2017,12,01,16,08,-24.90
2017,12,01,16,09,-24.90
2017,12,01,16,10,-24.80
2017,12,01,16,11,-24.60
2017,12,01,16,12,-24.90
2017,12,01,16,13,-24.90
2017,12,01,16,14,-24.90
2017,12,01,16,15,-24.90
2017,12,01,16,16,-24.60
2017,12,01,16,17,-24.60
2017,12,01,16,18,-24.60
2017,12,01,16,19,-24.60
2017,12,01,16,20,-24.60
2017,12,01,16,21,-24.60
2017,12,01,16,22,-24.60
2017,12,01,16,23,-24.60
2017,12,01,16,24,-24.60
2017,12,01,16,25,-24.60
2017,12,01,16,26,-24.60
2017,12,01,16,27,-24.60
2017,12,01,16,28,-24.60
2017,12,01,16,29,-24.60
2017,12,01,16,30,-24.60
2017,12,01,16,31,-24.60
2017,12,01,16,32,-24.60
2017,12,01,16,33,-24.60
2017,12,01,16,34,-24.50
2017,12,01,16,35,-24.30
2017,12,01,16,36,-24.20
2017,12,01,16,37,-24.20
2017,12,01,16,38,-24.20
2017,12,01,16,39,-24.20
2017,12,01,16,40,-24.20
2017,12,01,16,41,-24.20
2017,12,01,16,42,-24.20
2017,12,01,16,43,-24.20
2017,12,01,16,44,-24.20
2017,12,01,16,45,-24.10
2017,12,01,16,46,-24.20
2017,12,01,16,47,-23.90
2017,12,01,16,48,-23.90
2017,12,01,16,49,-24.10
2017,12,01,16,50,-24.20
2017,12,01,16,51,-24.20
2017,12,01,16,52,-24.20
2017,12,01,16,53,-24.20
2017,12,01,16,54,-24.20
2017,12,01,16,55,-23.90
2017,12,01,16,56,-23.90
2017,12,01,16,57,-23.90
2017,12,01,16,58,-23.90
2017,12,01,16,59,-24.00
2017,12,01,17,00,-23.90
2017,12,01,17,01,-23.90
2017,12,01,17,02,-23.90
2017,12,01,17,03,-23.90
2017,12,01,17,04,-23.90
2017,12,01,17,05,-24.20
2017,12,01,17,06,-24.20
2017,12,01,17,07,-24.00
2017,12,01,17,08,-23.90
2017,12,01,17,09,-24.00
2017,12,01,17,10,-24.20
2017,12,01,17,11,-24.20
2017,12,01,17,12,-24.20
2017,12,01,17,13,-24.20
2017,12,01,17,14,-24.20
2017,12,01,17,15,-24.20
2017,12,01,17,16,-24.10
2017,12,01,17,17,-24.20
2017,12,01,17,18,-24.00
2017,12,01,17,19,-23.90
2017,12,01,17,20,-24.20
2017,12,01,17,21,-24.20
2017,12,01,17,22,-24.20
2017,12,01,17,23,-24.20
2017,12,01,17,24,-24.20
2017,12,01,17,25,-24.20
2017,12,01,17,26,-24.20
2017,12,01,17,27,-24.20
2017,12,01,17,28,-24.20
2017,12,01,17,29,-24.20
2017,12,01,17,30,-24.20
2017,12,01,17,31,-24.20
2017,12,01,17,32,-24.20
2017,12,01,17,33,-24.20
2017,12,01,17,34,-24.20
2017,12,01,17,35,-24.20
2017,12,01,17,36,-24.20
2017,12,01,17,37,-24.20
2017,12,01,17,38,-24.20
2017,12,01,17,39,-24.20
2017,12,01,17,40,-24.10
2017,12,01,17,41,-24.00
2017,12,01,17,42,-24.20
2017,12,01,17,43,-24.10
2017,12,01,17,44,-24.00
2017,12,01,17,45,-23.90
2017,12,01,17,46,-23.90
2017,12,01,17,47,-23.90
2017,12,01,17,48,-23.90
2017,12,01,17,49,-23.90
2017,12,01,17,50,-23.90
2017,12,01,17,51,-23.90
2017,12,01,17,52,-23.90
2017,12,01,17,53,-23.90
2017,12,01,17,54,-23.90
2017,12,01,17,55,-23.90
2017,12,01,17,56,-23.90
2017,12,01,17,57,-23.90
2017,12,01,17,58,-23.90
2017,12,01,17,59,-23.90
2017,12,01,18,00,-23.90
2017,12,01,18,01,-23.90
2017,12,01,18,02,-23.90
2017,12,01,18,03,-24.20
2017,12,01,18,04,-24.20
2017,12,01,18,05,-24.20
2017,12,01,18,06,-24.20
2017,12,01,18,07,-24.20
2017,12,01,18,08,-24.20
2017,12,01,18,09,-24.20
2017,12,01,18,10,-24.20
2017,12,01,18,11,-24.20
2017,12,01,18,12,-24.20
2017,12,01,18,13,-24.20
2017,12,01,18,14,-24.20
2017,12,01,18,15,-24.20
2017,12,01,18,16,-24.20
2017,12,01,18,17,-24.20
2017,12,01,18,18,-24.20
2017,12,01,18,19,-24.20
2017,12,01,18,20,-24.20
2017,12,01,18,21,-24.20
2017,12,01,18,22,-24.20
2017,12,01,18,23,-24.20
2017,12,01,18,24,-24.20
2017,12,01,18,25,-24.00
2017,12,01,18,26,-23.90
2017,12,01,18,27,-23.90
2017,12,01,18,28,-23.90
2017,12,01,18,29,-23.90
2017,12,01,18,30,-23.90
2017,12,01,18,31,-23.90
2017,12,01,18,32,-23.90
2017,12,01,18,33,-23.90
2017,12,01,18,34,-23.90
2017,12,01,18,35,-23.90
2017,12,01,18,36,-23.90
2017,12,01,18,37,-23.90
2017,12,01,18,38,-23.90
2017,12,01,18,39,-23.90
2017,12,01,18,40,-23.90
2017,12,01,18,41,-23.90
2017,12,01,18,42,-23.90
2017,12,01,18,43,-23.90
2017,12,01,18,44,-24.10
2017,12,01,18,45,-24.00
2017,12,01,18,46,-24.20
2017,12,01,18,47,-24.20
2017,12,01,18,48,-24.20
2017,12,01,18,49,-24.20
2017,12,01,18,50,-24.20
2017,12,01,18,51,-24.20
2017,12,01,18,52,-24.20
2017,12,01,18,53,-24.20
2017,12,01,18,54,-24.20
2017,12,01,18,55,-24.20
2017,12,01,18,56,-24.20
2017,12,01,18,57,-24.20
2017,12,01,18,58,-24.20
2017,12,01,18,59,-23.90
2017,12,01,19,00,-23.90
2017,12,01,19,01,-23.90
2017,12,01,19,02,-23.90
2017,12,01,19,03,-23.90
2017,12,01,19,04,-23.90
2017,12,01,19,05,-23.90
2017,12,01,19,06,-23.90
2017,12,01,19,07,-23.90
2017,12,01,19,08,-23.90
2017,12,01,19,09,-23.90
2017,12,01,19,10,-23.90
2017,12,01,19,11,-23.90
2017,12,01,19,12,-23.90
2017,12,01,19,13,-23.90
2017,12,01,19,14,-23.90
2017,12,01,19,15,-23.80
2017,12,01,19,16,-23.60
2017,12,01,19,17,-23.60
2017,12,01,19,18,-23.60
2017,12,01,19,19,-23.60
2017,12,01,19,20,-23.60
2017,12,01,19,21,-23.60
2017,12,01,19,22,-23.60
2017,12,01,19,23,-23.60
2017,12,01,19,24,-23.60
2017,12,01,19,25,-23.60
2017,12,01,19,26,-23.60
2017,12,01,19,27,-23.60
2017,12,01,19,28,-23.60
2017,12,01,19,29,-23.50
2017,12,01,19,30,-23.40
2017,12,01,19,31,-23.20
2017,12,01,19,32,-23.30
2017,12,01,19,33,-23.30
2017,12,01,19,34,-23.40
2017,12,01,19,35,-23.40
2017,12,01,19,36,-23.20
2017,12,01,19,37,-23.20
2017,12,01,19,38,-23.20
2017,12,01,19,39,-23.20
2017,12,01,19,40,-23.20
2017,12,01,19,41,-23.20
2017,12,01,19,42,-23.20
2017,12,01,19,43,-23.20
2017,12,01,19,44,-23.20
2017,12,01,19,45,-23.20
2017,12,01,19,46,-23.00
2017,12,01,19,47,-22.90
2017,12,01,19,48,-22.90
2017,12,01,19,49,-22.90
2017,12,01,19,50,-22.90
2017,12,01,19,51,-22.90
2017,12,01,19,52,-22.90
2017,12,01,19,53,-22.90
2017,12,01,19,54,-22.90
2017,12,01,19,55,-22.90
2017,12,01,19,56,-22.90
2017,12,01,19,57,-22.90
2017,12,01,19,58,-22.90
2017,12,01,19,59,-22.90
2017,12,01,20,00,-23.20
2017,12,01,20,01,-23.20
2017,12,01,20,02,-23.20
2017,12,01,20,03,-23.20
2017,12,01,20,04,-23.50
2017,12,01,20,05,-23.60
2017,12,01,20,06,-23.60
2017,12,01,20,07,-23.70
2017,12,01,20,08,-23.90
2017,12,01,20,09,-23.90
2017,12,01,20,10,-23.90
2017,12,01,20,11,-23.90
2017,12,01,20,12,-23.90
2017,12,01,20,13,-23.90
2017,12,01,20,14,-23.90
2017,12,01,20,15,-23.90
2017,12,01,20,16,-23.90
2017,12,01,20,17,-23.90
2017,12,01,20,18,-23.90
2017,12,01,20,19,-23.90
2017,12,01,20,20,-23.90
2017,12,01,20,21,-23.90
2017,12,01,20,22,-23.90
2017,12,01,20,23,-23.90
2017,12,01,20,24,-23.70
2017,12,01,20,25,-23.70
2017,12,01,20,26,-23.90
2017,12,01,20,27,-23.90
2017,12,01,20,28,-23.90
2017,12,01,20,29,-23.90
2017,12,01,20,30,-24.20
2017,12,01,20,31,-24.20
2017,12,01,20,32,-24.20
2017,12,01,20,33,-24.20
2017,12,01,20,34,-24.30
2017,12,01,20,35,-24.60
2017,12,01,20,36,-24.60
2017,12,01,20,37,-24.60
2017,12,01,20,38,-24.60
2017,12,01,20,39,-24.60
2017,12,01,20,40,-24.60
2017,12,01,20,41,-24.50
2017,12,01,20,42,-24.60
2017,12,01,20,43,-24.60
2017,12,01,20,44,-24.60
2017,12,01,20,45,-24.60
2017,12,01,20,46,-24.80
2017,12,01,20,47,-24.90
2017,12,01,20,48,-24.90
2017,12,01,20,49,-24.90
2017,12,01,20,50,-24.90
2017,12,01,20,51,-24.90
2017,12,01,20,52,-24.90
2017,12,01,20,53,-24.90
2017,12,01,20,54,-24.90
2017,12,01,20,55,-24.90
2017,12,01,20,56,-24.90
2017,12,01,20,57,-24.90
2017,12,01,20,58,-24.90
2017,12,01,20,59,-24.90
2017,12,01,21,00,-24.90
2017,12,01,21,01,-24.90
2017,12,01,21,02,-24.90
2017,12,01,21,03,-24.90
2017,12,01,21,04,-24.90
2017,12,01,21,05,-24.90
2017,12,01,21,06,-24.90
2017,12,01,21,07,-24.90
2017,12,01,21,08,-24.90
2017,12,01,21,09,-24.90
2017,12,01,21,10,-24.90
2017,12,01,21,11,-24.90
2017,12,01,21,12,-24.90
2017,12,01,21,13,-24.90
2017,12,01,21,14,-24.90
2017,12,01,21,15,-24.90
2017,12,01,21,16,-24.90
2017,12,01,21,17,-24.90
2017,12,01,21,18,-24.90
2017,12,01,21,19,-24.90
2017,12,01,21,20,-24.90
2017,12,01,21,21,-24.90
2017,12,01,21,22,-24.90
2017,12,01,21,23,-24.90
2017,12,01,22,33,-24.90
2017,12,01,22,34,-24.90
2017,12,01,22,35,-24.90
2017,12,01,22,36,-24.90
2017,12,01,22,37,-24.90
2017,12,01,22,38,-24.90
2017,12,01,22,39,-24.90
2017,12,01,22,40,-24.90
2017,12,01,22,41,-24.90
2017,12,01,22,42,-24.90
2017,12,01,22,43,-24.90
2017,12,01,22,44,-24.90
2017,12,01,22,45,-24.90
2017,12,01,22,46,-24.90
2017,12,01,22,47,-24.90
2017,12,01,22,48,-24.90
2017,12,01,22,49,-24.90
2017,12,01,22,50,-24.90
2017,12,01,22,51,-24.80
2017,12,01,22,52,-24.90
2017,12,01,22,53,-24.60
2017,12,01,22,54,-24.60
2017,12,01,22,55,-24.60
2017,12,01,22,56,-24.60
2017,12,01,22,57,-24.60
2017,12,01,22,58,-24.60
2017,12,01,22,59,-24.40
2017,12,01,23,00,-24.20
2017,12,01,23,01,-24.20
2017,12,01,23,02,-24.20
2017,12,01,23,03,-24.20
2017,12,01,23,04,-24.20
2017,12,01,23,05,-24.20
2017,12,01,23,06,-24.20
2017,12,01,23,07,-24.00
2017,12,01,23,08,-23.90
2017,12,01,23,09,-23.90
2017,12,01,23,10,-23.90
2017,12,01,23,11,-23.90
2017,12,01,23,12,-23.90
2017,12,01,23,13,-23.90
2017,12,01,23,14,-23.70
2017,12,01,23,15,-23.60
2017,12,01,23,16,-23.50
2017,12,01,23,17,-23.10
2017,12,01,23,18,-22.90
2017,12,01,23,19,-22.90
2017,12,01,23,20,-22.90
2017,12,01,23,21,-22.70
2017,12,01,23,22,-22.50
2017,12,01,23,23,-22.50
2017,12,01,23,24,-22.40
2017,12,01,23,25,-22.30
2017,12,01,23,26,-22.30
2017,12,01,23,27,-22.20
2017,12,01,23,28,-22.00
2017,12,01,23,29,-21.70
2017,12,01,23,30,-21.30
2017,12,01,23,31,-20.90
2017,12,01,23,32,-20.50
2017,12,01,23,33,-20.30
2017,12,01,23,34,-20.20
2017,12,01,23,35,-20.10
2017,12,01,23,36,-19.90
2017,12,01,23,37,-19.80
2017,12,01,23,38,-19.60
2017,12,01,23,39,-19.30
2017,12,01,23,40,-19.30
2017,12,01,23,41,-19.10
2017,12,01,23,42,-19.00
2017,12,01,23,43,-19.00
2017,12,01,23,44,-18.80
2017,12,01,23,45,-18.70
2017,12,01,23,46,-18.70
2017,12,01,23,47,-18.70
2017,12,01,23,48,-18.70
2017,12,01,23,49,-18.70
2017,12,01,23,50,-18.70
2017,12,01,23,51,-18.60
2017,12,01,23,52,-18.40
2017,12,01,23,53,-18.30
2017,12,01,23,54,-18.10
2017,12,01,23,55,-18.10
2017,12,01,23,56,-18.10
2017,12,01,23,57,-18.00
2017,12,01,23,58,-17.80
2017,12,01,23,59,-17.80
